N5PRN Weather Reports


time (UTC)temp
C
wind
direction
speed
KPH
gust
KPH
rain 1hr
cm
rain 24hr
cm
rain mn
cm
humidity
%
barometer
mb
20260502204148 22 33 8.0 12.9 0.00 0.03 0.03 39 1018.0
20260502203644 22 337 4.8 4.8 0.00 0.03 0.03 44 1018.1
20260502203143 23 274 0.0 1.6 0.00 0.03 0.03 45 1018.0
20260502202643 23 236 0.0 0.0 0.00 0.03 0.03 41 1018.3
20260502202141 23 254 1.6 1.6 0.00 0.03 0.03 45 1018.3
20260502201637 22 251 3.2 3.2 0.00 0.03 0.03 38 1018.2
20260502201134 22 39 1.6 3.2 0.00 0.03 0.03 40 1018.4
20260502200630 23 82 12.9 14.5 0.00 0.03 0.03 38 1018.4
20260502200127 23 311 3.2 3.2 0.00 0.03 0.03 44 1018.5
20260502195626 22 272 0.0 0.0 0.00 0.03 0.03 51 1018.5
20260502195121 22 243 4.8 8.0 0.00 0.03 0.03 42 1018.4
20260502194618 22 248 0.0 0.0 0.00 0.03 0.03 42 1018.5
20260502194114 22 37 11.3 12.9 0.00 0.03 0.03 42 1018.6
20260502193611 23 318 3.2 4.8 0.00 0.03 0.03 43 1018.7
20260502193108 23 313 1.6 3.2 0.00 0.03 0.03 41 1019.0
20260502192604 22 83 3.2 3.2 0.00 0.03 0.03 48 1018.6
20260502192102 22 223 1.6 1.6 0.00 0.03 0.03 48 1018.8
20260502191558 22 141 0.0 1.6 0.00 0.03 0.03 44 1018.7
20260502191056 22 261 0.0 1.6 0.00 0.03 0.03 41 1018.7
20260502190553 22 138 1.6 3.2 0.00 0.03 0.03 42 1018.7
20260502190044 22 15 4.8 8.0 0.00 0.03 0.03 44 1018.9
20260502185539 22 221 0.0 0.0 0.00 0.03 0.03 46 1018.8
20260502185037 22 310 1.6 3.2 0.00 0.03 0.03 50 1019.1
20260502184532 22 154 3.2 4.8 0.00 0.03 0.03 44 1018.9
20260502184028 21 276 1.6 3.2 0.00 0.03 0.03 41 1018.9
20260502183524 22 164 3.2 4.8 0.00 0.03 0.03 45 1019.2
20260502183021 22 327 3.2 3.2 0.00 0.03 0.03 50 1019.2
20260502182515 22 332 4.8 4.8 0.00 0.03 0.03 44 1019.2
20260502182012 22 226 0.0 0.0 0.00 0.03 0.03 53 1019.1
20260502181510 21 45 4.8 4.8 0.00 0.03 0.03 48 1019.3
20260502181008 21 143 0.0 1.6 0.00 0.03 0.03 47 1019.3
20260502180505 21 101 1.6 1.6 0.00 0.03 0.03 48 1019.3
20260502170424 21 306 3.2 9.7 0.00 0.03 0.03 52 1020.0
20260502163902 20 287 0.0 0.0 0.00 0.03 0.03 54 1020.2
20260502163358 20 25 3.2 4.8 0.00 0.03 0.03 56 1020.0
20260502162856 20 46 4.8 4.8 0.00 0.03 0.03 55 1020.0
20260502162352 19 306 3.2 3.2 0.00 0.03 0.03 60 1019.9
20260502161849 18 330 1.6 3.2 0.00 0.03 0.03 60 1020.0
20260502161345 16 256 0.0 0.0 0.00 0.03 0.03 75 1020.0
20260502160844 14 73 0.0 1.6 0.00 0.03 0.03 99 1019.9
20260502160341 13 254 0.0 1.6 0.00 0.03 0.03 99 1019.9
20260502152317 13 86 3.2 3.2 0.00 0.03 0.03 99 1019.4
20260502151814 14 220 0.0 0.0 0.00 0.03 0.03 99 1019.6
20260502151311 12 309 0.0 0.0 0.00 0.03 0.03 99 1019.4
20260502150809 12 325 0.0 1.6 0.00 0.03 0.03 99 1019.7
20260502150304 13 22 3.2 3.2 0.00 0.03 0.03 98 1019.5
20260502130653 11 268 0.0 0.0 0.00 0.03 0.03 97 1018.1
20260502130151 11 320 0.0 0.0 0.00 0.03 0.03 97 1018.0
20260502123630 11 61 0.0 0.0 0.00 0.03 0.03 97 1017.8
20260502123126 11 255 0.0 0.0 0.00 0.03 0.03 97 1017.7
20260502122624 11 260 0.0 0.0 0.00 0.03 0.03 96 1017.9
20260502122120 11 250 0.0 0.0 0.00 0.03 0.03 96 1017.6
20260502121619 11 244 0.0 0.0 0.00 0.03 0.03 96 1017.6
20260502121116 11 252 0.0 0.0 0.00 0.03 0.03 96 1017.3
20260502120612 10 252 0.0 0.0 0.00 0.03 0.03 96 1017.2
20260502120109 10 283 0.0 0.0 0.00 0.03 0.03 96 1017.3
20260502115607 10 262 0.0 0.0 0.00 0.03 0.03 96 1017.2
20260502115102 10 249 0.0 0.0 0.00 0.03 0.03 96 1016.9
20260502114559 10 260 0.0 0.0 0.00 0.03 0.03 96 1017.0
20260502114056 10 276 0.0 0.0 0.00 0.03 0.03 96 1016.9
20260502113554 10 251 0.0 0.0 0.00 0.03 0.03 96 1016.7
20260502113052 10 261 0.0 0.0 0.00 0.03 0.03 96 1016.9
20260502112549 10 267 0.0 0.0 0.00 0.03 0.03 96 1016.9
20260502112047 10 261 0.0 0.0 0.00 0.03 0.03 96 1016.4
20260502111544 10 260 0.0 0.0 0.00 0.03 0.03 96 1016.2
20260502111042 10 269 0.0 0.0 0.00 0.03 0.03 96 1016.1
20260502110539 10 263 0.0 0.0 0.00 0.03 0.03 96 1016.3
20260502110036 10 263 0.0 0.0 0.00 0.03 0.03 96 1016.1
20260502105533 10 269 0.0 0.0 0.00 0.03 0.03 96 1016.0
20260502105031 10 294 0.0 0.0 0.00 0.03 0.03 96 1016.1
20260502104528 10 43 0.0 1.6 0.00 0.03 0.03 96 1016.1
20260502104025 11 239 0.0 0.0 0.00 0.03 0.03 96 1016.1
20260502103523 10 275 0.0 0.0 0.00 0.03 0.03 96 1016.0
20260502103021 11 283 0.0 0.0 0.00 0.03 0.03 96 1015.9
20260502102517 11 266 0.0 0.0 0.00 0.03 0.03 96 1015.8
20260502102014 11 272 0.0 0.0 0.00 0.03 0.03 96 1015.8
20260502101512 11 273 0.0 0.0 0.00 0.03 0.03 96 1015.9
20260502101010 11 273 0.0 0.0 0.00 0.03 0.03 96 1015.7
20260502100508 11 290 0.0 0.0 0.00 0.03 0.03 96 1015.6
20260502091443 11 274 0.0 0.0 0.00 0.03 0.03 96 1016.0
20260502090940 11 293 0.0 0.0 0.00 0.03 0.03 97 1015.7
20260502090437 11 269 0.0 0.0 0.00 0.03 0.03 96 1015.9
20260502071331 11 272 0.0 0.0 0.00 0.03 0.03 96 1015.3
20260502070830 11 271 0.0 0.0 0.00 0.03 0.03 96 1015.2
20260502070327 11 271 0.0 0.0 0.00 0.03 0.03 96 1015.3
20260502065826 11 264 0.0 0.0 0.00 0.03 0.03 96 1015.1
20260502065323 11 249 0.0 0.0 0.00 0.03 0.03 96 1015.5
20260502064821 11 282 0.0 0.0 0.00 0.03 0.03 96 1015.5
20260502064319 11 294 0.0 0.0 0.00 0.03 0.03 96 1015.4
20260502063816 11 260 0.0 0.0 0.00 0.03 0.03 96 1015.6
20260502063314 11 252 0.0 0.0 0.00 0.03 0.03 96 1015.9
20260502062810 11 243 0.0 0.0 0.00 0.03 0.03 96 1015.7
20260502062308 11 269 0.0 0.0 0.00 0.03 0.03 96 1015.9
20260502061807 11 271 0.0 0.0 0.00 0.03 0.03 96 1016.1
20260502061304 11 292 0.0 0.0 0.00 0.03 0.03 96 1016.2
20260502060759 11 268 0.0 0.0 0.00 0.03 0.03 96 1015.9
20260502060255 11 270 0.0 0.0 0.00 0.03 0.03 96 1015.8
20260502055753 11 283 0.0 0.0 0.00 0.03 0.03 96 1016.2
20260502055250 11 265 0.0 0.0 0.00 0.03 0.03 96 1016.3
20260502054750 11 269 0.0 0.0 0.18 0.03 0.03 96 1016.0
20260502054247 11 268 0.0 0.0 0.18 0.03 0.03 96 1016.2
20260502053744 11 253 0.0 0.0 0.18 0.03 0.03 96 1016.1
20260502053241 11 275 0.0 0.0 0.00 0.00 0.00 96 1016.3
20260502052739 11 287 0.0 0.0 0.00 0.00 0.00 96 1016.4
20260502052237 11 277 0.0 0.0 0.00 0.00 0.00 96 1016.4
20260502051735 11 272 0.0 0.0 0.00 0.00 0.00 96 1016.3
20260502051233 11 272 0.0 0.0 0.00 0.00 0.00 96 1016.2
20260502050729 11 281 0.0 0.0 0.00 0.00 0.00 96 1016.6
20260502050225 11 291 0.0 0.0 0.13 0.00 0.00 96 1017.1
20260502045723 11 268 0.0 0.0 0.13 4.42 4.42 96 1016.4
20260502045219 11 260 0.0 0.0 0.00 4.39 4.39 96 1016.9
20260502044715 10 258 0.0 0.0 0.00 4.39 4.39 96 1017.1
20260502044212 10 255 0.0 0.0 0.00 4.39 4.39 96 1017.1
20260502043710 10 255 0.0 0.0 0.18 4.39 4.39 96 1016.9
20260502043208 10 267 0.0 0.0 0.18 4.39 4.39 96 1016.7
20260502042707 10 267 0.0 0.0 0.30 4.39 4.39 96 1017.0
20260502042204 10 263 0.0 0.0 0.13 4.37 4.37 96 1016.9
20260502041702 10 263 0.0 0.0 0.00 4.34 4.34 96 1016.3
20260502041159 10 255 0.0 0.0 0.00 4.34 4.34 96 1016.4
20260502040655 10 277 0.0 0.0 0.18 4.34 4.34 96 1016.4
20260502040153 10 277 0.0 0.0 0.30 4.34 4.34 96 1016.4
20260502035649 10 272 0.0 0.0 0.30 4.32 4.32 96 1016.4
20260502035146 10 245 0.0 0.0 0.61 4.32 4.32 96 1016.2
20260502034643 10 273 0.0 0.0 0.43 4.27 4.27 96 1016.4
20260502034141 10 287 0.0 0.0 0.30 4.22 4.22 96 1016.4
20260502033639 10 263 0.0 0.0 0.18 4.19 4.19 96 1016.3
20260502033137 10 269 0.0 0.0 0.18 4.17 4.17 96 1016.6
20260502032633 10 259 0.0 0.0 0.18 4.17 4.17 96 1016.4
20260502032129 10 263 0.0 0.0 0.13 4.14 4.14 96 1016.7
20260502031627 10 262 0.0 0.0 0.13 4.14 4.14 96 1017.0
20260502031125 10 263 0.0 0.0 0.00 4.11 4.11 96 1016.9
20260502030624 10 260 0.0 0.0 0.00 4.11 4.11 96 1016.1
20260502030121 10 269 0.0 0.0 0.00 4.11 4.11 96 1015.6
20260502025618 10 269 0.0 0.0 0.18 4.11 4.11 96 1015.3
20260502025116 10 259 0.0 0.0 0.18 4.11 4.11 96 1015.2
20260502024614 10 262 0.0 0.0 0.00 4.09 4.09 96 1015.2
20260502024112 10 262 0.0 0.0 0.13 4.09 4.09 96 1015.7
20260502023609 10 285 0.0 0.0 0.13 4.09 4.09 96 1015.6
20260502023106 10 262 0.0 0.0 0.13 4.09 4.09 96 1016.1
20260502022603 10 284 0.0 0.0 0.00 4.06 4.06 96 1016.1
20260502022100 10 281 0.0 0.0 0.00 4.06 4.06 96 1015.6
20260502021557 10 268 0.0 0.0 0.00 4.06 4.06 96 1015.2
20260502021054 10 269 0.0 0.0 0.00 4.06 4.06 96 1014.9
20260502020552 10 260 0.0 0.0 0.00 4.06 4.06 96 1014.7
20260502020049 10 224 0.0 0.0 0.00 4.06 4.06 96 1014.9
20260502015546 10 288 0.0 0.0 0.00 4.06 4.06 96 1014.6
20260502015042 10 277 0.0 0.0 0.18 4.06 4.06 96 1014.4
20260502014539 10 237 0.0 0.0 0.18 4.06 4.06 96 1014.3
20260502014037 10 224 0.0 0.0 0.00 4.04 4.04 96 1014.2
20260502013532 10 225 0.0 0.0 0.00 4.04 4.04 96 1014.5
20260502013029 10 300 0.0 0.0 0.13 4.04 4.04 96 1014.3
20260502012526 10 243 0.0 0.0 0.13 4.04 4.04 96 1014.3
20260502012024 10 267 0.0 1.6 0.00 4.01 4.01 96 1014.0
20260502011520 10 92 1.6 3.2 0.18 4.01 4.01 96 1013.8
20260502011016 10 21 0.0 1.6 0.18 4.01 4.01 96 1013.8
20260502010514 10 254 0.0 0.0 0.13 3.99 3.99 96 1013.9
20260502010010 10 265 0.0 0.0 0.30 3.99 3.99 96 1013.8
20260502005508 10 231 0.0 0.0 0.30 3.96 3.96 96 1014.0
20260502005006 10 245 0.0 0.0 0.30 3.94 3.94 96 1014.3
20260502004501 10 247 0.0 0.0 0.30 3.94 3.94 96 1014.4
20260502003958 10 256 0.0 0.0 0.30 3.89 3.89 96 1014.8
20260502003455 10 249 0.0 0.0 0.48 3.89 3.89 96 1014.9
20260502002951 10 247 0.0 0.0 0.30 3.84 3.84 96 1015.1
20260502002449 10 242 0.0 0.0 0.43 3.81 3.81 96 1015.5
20260502001947 10 264 0.0 0.0 0.61 3.78 3.78 96 1015.4
20260502001444 10 241 0.0 0.0 0.61 3.73 3.73 96 1015.3
20260502000941 10 257 0.0 0.0 0.79 3.68 3.68 96 1015.3
20260502000440 10 229 0.0 0.0 0.79 3.63 3.63 96 1015.4
20260501235935 10 258 0.0 0.0 0.66 3.58 3.58 96 1015.2
20260501235431 11 239 0.0 0.0 0.48 3.51 3.51 96 1014.9
20260501234927 11 268 0.0 0.0 0.43 3.48 3.48 96 1015.2
20260501234424 11 267 0.0 0.0 0.43 3.43 3.43 96 1015.2
20260501233922 11 255 0.0 0.0 0.61 3.40 3.40 96 1014.9
20260501233419 11 261 1.6 1.6 0.48 3.35 3.35 96 1014.8
20260501232915 11 238 0.0 0.0 0.48 3.30 3.30 96 1014.7
20260501232412 11 224 1.6 1.6 0.48 3.28 3.28 96 1014.8
20260501231909 11 220 0.0 0.0 0.48 3.25 3.25 96 1014.4
20260501231408 11 298 1.6 1.6 0.30 3.20 3.20 96 1014.3
20260501230906 11 283 0.0 1.6 0.48 3.17 3.17 96 1014.2
20260501230404 11 258 0.0 0.0 0.61 3.15 3.15 96 1014.4
20260501225901 11 259 0.0 0.0 0.71 3.10 3.10 96 1014.6
20260501225359 11 244 0.0 0.0 0.71 3.05 3.05 96 1014.6
20260501224855 11 237 0.0 0.0 0.61 3.00 3.00 96 1014.8
20260501224352 11 3 1.6 1.6 0.48 2.95 2.95 96 1014.5
20260501223849 11 278 0.0 0.0 0.48 2.90 2.90 96 1014.2
20260501223345 11 265 0.0 0.0 0.43 2.87 2.87 96 1014.4
20260501222840 11 271 1.6 3.2 0.43 2.82 2.82 96 1014.1
20260501222339 11 60 1.6 3.2 0.30 2.79 2.79 96 1014.0
20260501221835 11 292 0.0 0.0 0.13 2.77 2.77 96 1013.9
20260501221332 11 344 1.6 1.6 0.18 2.74 2.74 96 1013.6
20260501220830 11 4 3.2 3.2 0.18 2.74 2.74 96 1012.8
20260501220327 11 352 1.6 1.6 0.00 2.72 2.72 96 1012.3
20260501215823 11 279 0.0 1.6 0.00 2.72 2.72 96 1011.7
20260501215320 11 309 1.6 1.6 0.13 2.72 2.72 96 1011.5
20260501214815 11 213 0.0 0.0 0.13 2.72 2.72 96 1011.0
20260501214311 11 257 0.0 0.0 0.00 2.69 2.69 96 1010.9
20260501213807 11 237 0.0 0.0 0.00 2.69 2.69 96 1011.0
20260501213303 11 222 0.0 1.6 0.18 2.69 2.69 96 1010.9
20260501212759 11 241 0.0 0.0 0.18 2.69 2.69 96 1011.2
20260501212256 11 262 0.0 0.0 0.13 2.67 2.67 96 1011.0
20260501211754 11 181 3.2 3.2 0.13 2.67 2.67 96 1011.3
20260501211250 11 244 1.6 1.6 0.18 2.64 2.64 96 1011.6
20260501210747 11 250 3.2 3.2 0.18 2.64 2.64 96 1011.7
20260501210244 11 314 1.6 1.6 0.18 2.62 2.62 96 1011.7
20260501205740 11 154 0.0 0.0 0.18 2.62 2.62 96 1011.1
20260501205238 11 203 0.0 0.0 0.13 2.59 2.59 96 1011.5
20260501204734 11 152 0.0 0.0 0.13 2.59 2.59 96 1012.1